{"data":{"norad_id":26605,"epoch":"2026-05-25T03:59:27.513024Z","epoch_age_seconds":61442,"freshness":"FRESH","line1":"1 26605U 00071A   26145.16629066  .00000005  00000+0  00000+0 0  9994","line2":"2 26605  55.6137  95.8632 0174381 266.5986 239.4730  2.00566589187057","mean_motion":2.00566589,"eccentricity":0.0174381,"inclination_deg":55.6137,"raan_deg":95.8632,"arg_perigee_deg":266.5986,"mean_anomaly_deg":239.473,"bstar":0,"rev_number":18705,"period_min":717.96604169202,"perigee_km":19718.789882173,"apogee_km":20645.104693818,"semimajor_km":26560.084287995,"source":"CELESTRAK","updated_at":"2026-05-25T13:37:55.024400Z"}}